SCP
0 0 0 0 0 0 0 0 0 0 -0 -0 -0 -0 -0 -0 0 0 0 0 0 0 0 0 0 0 0 0 0 0 0 0 0 0 0 0 0 0 0 0 0 0 0 0 0
0 0 0 0 0 0 0 0 0 0 0 0 0 0 0 0 0 0 0 0 0 0 0 0 0 0 0 0 0 0 0 0 0 0 0 0 0 0 0 0 0 0 0 0 0
0 0 0 0 0 0 0 0 0 0 0 0 0 0 0 0 0 0 0 0 0 0 0 0 0 0 0 0 0 0 0 0 0 0 0 0 0 0 0 0 0 0 0 0 0
0 0 0 0 0 0 0 0 0 0 0 0 0 0 0 0 0 0 0 0 0 0 0 0 0 0 0 0 0 0 0 0 0 0 0 0 0 0 0 0 0 0 0 0 0
0 0 0 0 0 0 0 0 0 0 0 0 0 0 0 0 0 0 0 0 0 0 0 0 0 0 0 0 0 0 0 0 0 0 0 0 0 0 0 0 0 0 0 0 0
0 0 0 0 0 0 0 0 0 0 0 0 0 0 0 0 0 0 0 0 0 0 0 0 0 0 0 0 0 0 0 0 0 0 0 0 0 0 0 0 0 0 0 0 0
0 0 0 0 0 0 0 0 0 0 0 0 0 0 0 0 0 0 0 0 0 0 0 0 0 0 0 0 0 0 0 0 0 0 0 0 0 0 0 0 0 0 0 0 0
0 0 0 0 0 0 0 0 0 0 0 0 0 0 0 0 0 0 0 0 0 0 0 0 0 0 0 0 0 0 0 0 0 0 0 0 0 0 0 0 0 0 0 0 0
0 0 0 0 0 0 0 0 0 0 0 0 0 0 0 0 0 0 0 0 0 0 0 0 0 0 0 0 0 0 0 0 0 0 0 0 0 0 0 0 0 0 0 0 0
0 0 0 0 0 0 0 0 0 0 0 0 0 0 0 0 0 0 0 0 0 0 0 0 0 0 0 0 0 0 0 0 0 0 0 0 -0 -0 0 0 0 0 0 0 0
0 0 0 0 0 0 0 0 0 0 0 0 0 0 0 0 0 0 0 0 0 0 0 0 0 0 0 0 0 0 0 0 0 0 0 0 0 -0 0 0 0 0 0 0 0
0 0 0 0 0 0 0 0 0 0 0 0 0 0 0 0 0 0 0 0 0 0 0 0 0 0 0 0 0 0 0 0 0 0 0 0 -0 -0 -0 0 0 0 0 0 0
0 0 0 0 0 0 0 0 0 0 0 0 0 0 0 0 0 0 0 0 0 0 0 0 0 0 0 0 0 0 0 0 0 0 0 0 0 0 0 0 0 0 0 0 0
0 0 0 0 0 0 0 0 0 0 0 0 0 0 0 0 0 0 0 0 0 0 0 0 0 0 0 0 0 0 0 0 0 0 0 0 -0 0 0 0 0 0 0 0 0
0 0 0 0 0 0 0 0 0 0 0 0 0 0 0 0 0 0 0 0 0 0 0 0 0 0 0 0 0 0 0 0 0 0 0 0 0 0 0 0 0 0 0 0 0
0 0 0 0 0 0 0 0 0 0 0 0 0 0 0 0 0 0 0 0 0 0 0 0 0 0 0 0 0 0 0 0 0 0 0 0 0 0 0 0 0 0 0 0 0
0 0 0 0 0 0 0 0 0 0 0 0 0 0 0 0 0 0 0 0 0 0 0 0 0 0 0 0 0 0 0 0 0 0 0 0 0 0 0 0 0 0 0 0 0
0 0 0 0 0 0 0 0 0 0 0 0 0 0 0 0 0 0 0 0 0 0 0 0 0 0 0 0 0 0 0 0 0 0 0 0 0 0 0 0 0 0 0 0 0
0 0 0 0 0 0 0 0 0 0 0 0 0 0 0 0 0 0 0 0 0 0 0 0 0 0 0 0 0 0 0 0 0 0 0 0 0 0 0 0 0 0 0 0 0
0 0 0 0 0 0 0 0 0 0 0 0 0 0 0 0 0 0 0 0 0 0 0 0 0 0 0 0 0 0 0 0 0 0 0 0 0 0 0 0 0 0 0 0 0
0 0 0 0 0 0 0 0 0 0 0 0 0 0 0 0 0 0 0 0 0 0 0 0 0 0 0 0 0 0 0 0 0 0 0 0 0 0 0 0 0 0 -0 0 0
0 0 0 0 0 0 0 0 0 0 0 0 0 0 0 0 0 0 0 0 0 0 0 0 0 0 0 0 0 0 0 0 0 0 0 0 0 0 0 0 0 0 0 0 0
0 0 0 0 0 0 0 0 0 0 0 0 0 0 0 0 0 0 0 0 0 0 0 0 0 0 0 0 0 0 0 0 0 0 0 0 0 0 0 0 0 0 -0 0 0
0 0 0 0 0 0 0 0 0 0 0 0 0 0 0 0 0 0 0 0 0 0 0 0 0 0 0 0 0 0 0 0 0 0 0 0 0 0 0 0 0 0 -0 0 0
0 0 0 0 0 0 0 0 0 0 0 0 0 0 0 0 0 0 0 0 0 0 0 0 0 0 0 0 0 0 0 0 0 0 0 0 0 -0 0 0 0 0 0 0 0
0 0 0 0 0 0 0 0 0 0 0 0 0 0 0 0 0 0 0 0 0 0 0 0 0 0 0 0 0 0 0 0 0 0 0 0 -0 0 0 0 0 0 0 0 0
0 0 0 0 0 0 0 0 0 0 0 0 0 0 0 0 0 0 0 0 0 0 0 0 0 0 0 0 0 0 0 0 0 0 0 0 -0 0 0 0 0 0 0 0 0
Wind_Speed_500mb
13 13 13 14 12 13 11 12 11 10 10 6 5 5 1 5 5 5 8 5 3 5 11 13 15 14 13 9 5 7 7 3 7 9 6 6 5 8 6 8 11 9 9 9 10
18 14 13 12 13 10 12 10 11 12 12 10 5 3 2 5 8 7 7 3 2 5 10 16 17 14 8 6 5 8 6 11 3 3 4 4 8 8 6 10 12 14 13 10 13
17 19 16 14 14 14 11 12 10 11 11 10 9 5 4 7 8 11 5 1 3 6 11 12 11 9 7 6 4 6 8 4 5 4 4 6 7 9 7 12 22 28 27 19 20
17 19 21 18 16 16 16 13 12 12 12 10 7 6 5 9 5 8 3 1 1 5 8 11 11 8 6 5 4 0 5 5 4 7 5 6 6 10 27 14 7 16 19 21 16
22 19 19 21 19 18 19 17 15 14 13 13 10 5 6 7 9 6 1 1 3 6 11 10 9 6 7 5 3 2 3 7 10 11 13 12 18 15 30 32 26 19 20 19 16
25 24 22 20 21 21 20 20 19 17 15 14 12 7 5 7 8 5 2 2 3 5 7 8 6 8 8 4 5 2 5 9 11 12 14 8 9 3 10 22 32 26 23 22 19
30 26 25 24 21 22 21 21 20 19 18 16 14 10 10 10 8 5 4 1 2 3 6 8 6 6 6 4 1 2 7 10 13 10 8 4 14 20 41 14 32 31 26 24 21
33 28 27 26 26 24 22 22 21 21 21 17 15 12 8 11 13 9 6 3 3 7 8 10 9 9 4 7 8 3 4 6 3 13 3 3 18 8 12 26 34 33 28 26 25
36 29 29 28 28 25 23 23 23 21 21 17 16 9 8 8 12 12 10 8 8 9 11 12 11 7 8 8 7 6 7 8 12 16 4 8 16 7 10 29 34 36 34 29 28
42 32 29 30 30 28 24 23 21 22 20 17 19 8 11 3 7 11 11 12 7 11 10 6 6 6 5 6 8 8 7 9 10 4 8 11 37 31 36 36 49 47 40 32 30
35 37 36 33 32 31 25 19 12 10 18 13 6 4 5 11 11 12 14 15 11 7 7 4 6 11 18 13 3 4 6 8 8 0 6 14 32 39 33 42 47 58 51 38 31
44 40 39 38 34 33 25 13 11 9 14 26 25 20 11 14 9 17 19 13 8 7 10 7 13 9 6 9 9 5 3 9 9 4 2 11 41 38 11 16 40 46 56 47 31
38 43 38 37 39 36 32 25 17 10 8 11 22 18 15 24 10 21 25 12 7 10 13 12 3 10 8 7 7 5 8 6 7 11 1 15 17 9 4 8 9 22 30 38 32
31 36 43 43 39 40 39 25 20 6 6 10 11 11 22 16 7 20 28 11 4 16 13 10 3 10 6 7 10 6 6 5 4 9 7 9 10 13 9 14 4 11 20 27 29
31 26 31 41 35 32 25 23 17 10 7 6 8 13 21 15 20 10 22 11 9 10 11 9 12 8 6 8 10 7 6 5 5 4 6 7 5 16 8 9 5 10 24 28 28
38 32 29 44 52 39 32 29 24 5 19 7 9 11 11 6 6 11 9 6 5 6 0 4 1 7 7 6 2 11 9 10 7 3 4 4 8 12 5 7 2 5 30 33 29
46 38 25 46 45 48 38 39 6 11 4 8 9 10 6 10 8 9 11 11 12 10 11 1 5 3 7 9 8 4 8 4 8 5 9 6 3 22 10 9 8 8 36 38 31
49 47 35 50 49 38 49 6 12 9 9 6 7 10 12 13 8 12 13 10 12 5 6 13 8 16 10 8 10 10 9 8 10 4 7 6 12 11 9 8 14 14 23 35 32
35 39 39 48 37 40 29 8 16 14 10 16 6 8 7 8 10 8 14 11 18 24 14 10 3 3 4 5 6 9 8 3 11 4 5 6 15 15 8 5 2 10 26 36 34
27 18 40 38 36 46 11 17 9 8 17 5 16 12 16 14 13 14 18 12 12 25 9 10 7 3 5 7 6 6 8 5 5 5 7 9 11 11 6 13 12 12 33 39 35
17 9 14 39 28 26 9 13 10 19 11 15 13 8 9 16 16 12 12 7 12 14 23 8 8 1 4 13 15 7 5 2 4 7 8 3 11 13 11 12 19 19 43 45 42
6 6 6 26 12 8 6 10 6 12 7 5 3 7 16 17 14 13 19 9 22 24 22 10 8 8 9 0 4 6 12 11 8 10 6 1 13 5 10 8 16 29 43 43 40
19 11 10 36 6 5 3 6 5 10 12 13 10 12 8 15 8 15 13 2 11 15 23 18 3 5 6 3 5 9 11 8 6 5 12 11 11 4 7 11 14 23 39 46 44
8 5 6 20 3 5 4 6 11 9 5 8 10 9 1 5 9 11 11 5 1 8 9 14 7 12 15 7 10 10 11 13 11 6 6 14 16 14 10 13 11 17 24 40 50
3 6 8 4 5 6 5 5 8 12 9 8 5 28 22 13 8 11 6 4 4 5 3 8 11 10 7 7 7 9 9 20 25 30 18 13 30 44 22 18 28 27 24 35 51
4 4 10 10 19 15 9 3 7 5 11 8 13 22 30 28 19 17 14 11 12 6 13 5 5 6 6 7 11 9 17 20 33 30 27 26 54 27 31 21 23 31 36 44 55
7 11 6 10 4 5 7 12 14 22 9 14 8 21 23 34 32 6 13 16 18 17 13 14 11 6 7 6 4 17 29 40 20 16 30 25 58 7 8 16 35 48 50 51 60
Wind_Direction_500mb
306 314 322 326 334 338 343 344 348 344 338 338 345 348 235 192 196 214 230 252 219 137 133 143 154 147 151 124 103 99 62 256 260 146 253 156 155 212 225 217 212 218 185 194 232
302 298 302 306 309 315 322 332 335 339 338 329 325 330 273 226 226 217 231 232 114 130 153 170 163 145 106 106 95 91 123 228 217 184 237 204 206 211 231 214 223 206 204 234 271
304 301 295 294 298 300 305 314 324 329 332 326 322 317 234 214 226 217 227 222 129 148 178 174 150 133 108 135 125 127 202 226 241 224 209 224 251 225 209 248 226 213 212 239 264
314 307 301 293 292 297 300 304 311 318 322 318 312 306 234 201 199 183 232 262 129 152 165 158 155 137 115 110 125 150 238 225 258 241 245 230 264 262 225 237 259 224 220 241 266
306 316 310 301 294 293 296 298 301 305 311 314 308 298 229 233 239 216 252 213 187 174 185 171 151 122 107 117 98 162 250 239 254 253 257 258 253 252 258 248 244 229 235 248 264
300 303 309 309 301 293 290 292 294 293 298 303 299 292 231 231 225 247 206 210 199 187 182 168 134 110 106 96 139 305 271 284 260 256 255 254 266 298 270 227 222 224 236 249 258
290 298 304 305 307 298 290 289 291 288 289 295 293 295 265 245 233 234 248 219 174 175 166 158 143 142 127 56 353 33 320 305 244 228 250 318 274 234 247 246 217 223 237 247 254
281 289 297 305 304 308 299 287 288 289 287 288 288 296 265 246 235 242 221 199 147 150 140 158 156 123 90 116 34 352 44 320 195 176 230 106 273 253 226 205 214 223 238 248 251
275 275 287 296 306 303 310 296 285 284 283 282 280 276 259 259 228 224 206 183 155 130 139 138 137 100 107 91 5 12 244 228 307 201 142 185 273 244 215 208 226 230 238 249 248
265 267 273 286 295 304 300 305 287 280 271 271 251 289 248 238 195 194 189 170 142 146 122 115 81 78 54 114 225 209 229 249 252 220 221 248 259 264 256 234 239 241 237 243 244
242 268 270 274 282 290 302 308 293 273 242 229 172 161 156 181 176 180 176 170 147 142 141 94 85 216 217 204 176 154 220 254 271 171 260 244 277 276 261 242 235 237 235 237 242
250 255 255 268 265 275 284 284 265 282 304 246 237 222 203 186 168 184 177 173 161 171 115 53 234 211 203 183 219 228 220 270 280 299 254 321 288 286 260 241 239 231 235 233 227
254 252 238 252 260 260 267 262 264 283 261 262 222 216 195 202 211 193 187 178 163 164 189 175 215 134 141 156 172 227 194 228 245 317 239 313 292 334 291 297 295 233 238 224 219
272 249 248 234 249 253 259 263 241 258 355 238 204 204 185 172 234 189 185 178 198 200 164 234 232 162 166 200 153 247 185 150 55 28 273 8 279 305 300 305 274 177 177 188 201
266 272 260 231 226 233 235 220 187 167 260 113 157 156 159 177 135 170 178 167 179 186 128 235 167 160 171 204 174 228 124 93 82 72 337 355 67 271 346 322 248 190 187 195 201
258 269 277 232 230 223 233 149 144 76 238 162 132 163 130 159 143 122 152 147 127 139 176 250 184 170 191 71 57 144 77 44 51 59 348 243 115 285 241 217 304 193 196 200 207
257 252 261 211 225 224 207 141 117 218 24 200 183 166 156 154 166 165 162 170 161 130 208 117 207 181 148 96 24 91 89 331 345 10 227 147 89 247 259 239 222 209 205 203 203
258 250 241 234 225 225 172 97 200 202 202 137 112 120 177 154 196 175 144 189 233 158 133 165 251 177 179 176 175 181 171 167 209 215 284 89 235 249 200 271 245 244 210 195 194
298 264 246 238 244 217 162 194 203 193 158 143 98 133 238 206 143 145 195 208 197 182 182 157 216 100 82 123 137 186 199 165 106 41 39 231 281 293 228 228 140 171 180 188 192
311 248 244 235 244 205 220 216 245 236 127 173 180 164 174 186 160 187 183 207 204 181 160 204 103 327 142 125 66 157 164 85 352 138 257 279 275 244 264 217 215 196 203 196 196
306 247 225 228 219 188 223 209 200 245 166 156 195 158 198 176 171 192 201 267 203 179 171 154 120 299 150 203 172 141 208 132 135 163 180 277 265 210 221 198 208 213 213 205 202
283 242 232 190 178 190 198 190 207 200 178 135 65 198 182 178 170 199 210 243 182 145 166 171 117 163 215 126 139 170 195 173 147 215 243 211 274 176 215 219 216 231 219 214 212
320 282 278 191 220 205 244 232 230 201 174 175 176 228 164 185 182 198 189 49 194 166 158 175 216 82 18 14 356 202 194 175 115 91 207 151 258 4 286 290 262 237 211 210 209
309 296 266 223 294 327 175 226 209 204 260 214 181 150 76 259 260 190 216 186 195 197 163 130 151 167 190 167 131 186 189 181 160 150 184 230 303 270 270 254 257 242 217 209 213
231 274 329 324 7 259 321 331 216 212 234 219 264 207 190 211 201 211 157 124 30 151 92 151 187 160 202 139 151 181 171 186 204 214 197 232 225 252 242 235 239 238 221 212 215
232 285 340 320 333 2 185 217 331 299 181 215 223 214 208 198 197 195 160 200 180 178 168 172 176 109 315 196 216 235 205 198 222 236 253 269 277 260 254 248 261 256 234 226 227
302 327 326 327 347 35 345 7 14 349 234 265 304 243 213 225 214 279 199 167 152 149 162 151 135 121 230 48 46 285 208 209 204 205 212 222 243 273 232 233 251 267 261 249 254
Wind_Speed_850mb
13 13 13 14 12 13 11 12 11 10 10 6 5 5 1 5 5 5 8 5 3 5 11 13 15 14 13 9 5 7 7 3 7 9 6 6 5 8 6 8 11 9 9 9 10
18 14 13 12 13 10 12 10 11 12 12 10 5 3 2 5 8 7 7 3 2 5 10 16 17 14 8 6 5 8 6 11 3 3 4 4 8 8 6 10 12 14 13 10 13
17 19 16 14 14 14 11 12 10 11 11 10 9 5 4 7 8 11 5 1 3 6 11 12 11 9 7 6 4 6 8 4 5 4 4 6 7 9 7 12 22 28 27 19 20
17 19 21 18 16 16 16 13 12 12 12 10 7 6 5 9 5 8 3 1 1 5 8 11 11 8 6 5 4 0 5 5 4 7 5 6 6 10 27 14 7 16 19 21 16
22 19 19 21 19 18 19 17 15 14 13 13 10 5 6 7 9 6 1 1 3 6 11 10 9 6 7 5 3 2 3 7 10 11 13 12 18 15 30 32 26 19 20 19 16
25 24 22 20 21 21 20 20 19 17 15 14 12 7 5 7 8 5 2 2 3 5 7 8 6 8 8 4 5 2 5 9 11 12 14 8 9 3 10 22 32 26 23 22 19
30 26 25 24 21 22 21 21 20 19 18 16 14 10 10 10 8 5 4 1 2 3 6 8 6 6 6 4 1 2 7 10 13 10 8 4 14 20 41 14 32 31 26 24 21
33 28 27 26 26 24 22 22 21 21 21 17 15 12 8 11 13 9 6 3 3 7 8 10 9 9 4 7 8 3 4 6 3 13 3 3 18 8 12 26 34 33 28 26 25
36 29 29 28 28 25 23 23 23 21 21 17 16 9 8 8 12 12 10 8 8 9 11 12 11 7 8 8 7 6 7 8 12 16 4 8 16 7 10 29 34 36 34 29 28
42 32 29 30 30 28 24 23 21 22 20 17 19 8 11 3 7 11 11 12 7 11 10 6 6 6 5 6 8 8 7 9 10 4 8 11 37 31 36 36 49 47 40 32 30
35 37 36 33 32 31 25 19 12 10 18 13 6 4 5 11 11 12 14 15 11 7 7 4 6 11 18 13 3 4 6 8 8 0 6 14 32 39 33 42 47 58 51 38 31
44 40 39 38 34 33 25 13 11 9 14 26 25 20 11 14 9 17 19 13 8 7 10 7 13 9 6 9 9 5 3 9 9 4 2 11 41 38 11 16 40 46 56 47 31
38 43 38 37 39 36 32 25 17 10 8 11 22 18 15 24 10 21 25 12 7 10 13 12 3 10 8 7 7 5 8 6 7 11 1 15 17 9 4 8 9 22 30 38 32
31 36 43 43 39 40 39 25 20 6 6 10 11 11 22 16 7 20 28 11 4 16 13 10 3 10 6 7 10 6 6 5 4 9 7 9 10 13 9 14 4 11 20 27 29
31 26 31 41 35 32 25 23 17 10 7 6 8 13 21 15 20 10 22 11 9 10 11 9 12 8 6 8 10 7 6 5 5 4 6 7 5 16 8 9 5 10 24 28 28
38 32 29 44 52 39 32 29 24 5 19 7 9 11 11 6 6 11 9 6 5 6 0 4 1 7 7 6 2 11 9 10 7 3 4 4 8 12 5 7 2 5 30 33 29
46 38 25 46 45 48 38 39 6 11 4 8 9 10 6 10 8 9 11 11 12 10 11 1 5 3 7 9 8 4 8 4 8 5 9 6 3 22 10 9 8 8 36 38 31
49 47 35 50 49 38 49 6 12 9 9 6 7 10 12 13 8 12 13 10 12 5 6 13 8 16 10 8 10 10 9 8 10 4 7 6 12 11 9 8 14 14 23 35 32
35 39 39 48 37 40 29 8 16 14 10 16 6 8 7 8 10 8 14 11 18 24 14 10 3 3 4 5 6 9 8 3 11 4 5 6 15 15 8 5 2 10 26 36 34
27 18 40 38 36 46 11 17 9 8 17 5 16 12 16 14 13 14 18 12 12 25 9 10 7 3 5 7 6 6 8 5 5 5 7 9 11 11 6 13 12 12 33 39 35
17 9 14 39 28 26 9 13 10 19 11 15 13 8 9 16 16 12 12 7 12 14 23 8 8 1 4 13 15 7 5 2 4 7 8 3 11 13 11 12 19 19 43 45 42
6 6 6 26 12 8 6 10 6 12 7 5 3 7 16 17 14 13 19 9 22 24 22 10 8 8 9 0 4 6 12 11 8 10 6 1 13 5 10 8 16 29 43 43 40
19 11 10 36 6 5 3 6 5 10 12 13 10 12 8 15 8 15 13 2 11 15 23 18 3 5 6 3 5 9 11 8 6 5 12 11 11 4 7 11 14 23 39 46 44
8 5 6 20 3 5 4 6 11 9 5 8 10 9 1 5 9 11 11 5 1 8 9 14 7 12 15 7 10 10 11 13 11 6 6 14 16 14 10 13 11 17 24 40 50
3 6 8 4 5 6 5 5 8 12 9 8 5 28 22 13 8 11 6 4 4 5 3 8 11 10 7 7 7 9 9 20 25 30 18 13 30 44 22 18 28 27 24 35 51
4 4 10 10 19 15 9 3 7 5 11 8 13 22 30 28 19 17 14 11 12 6 13 5 5 6 6 7 11 9 17 20 33 30 27 26 54 27 31 21 23 31 36 44 55
7 11 6 10 4 5 7 12 14 22 9 14 8 21 23 34 32 6 13 16 18 17 13 14 11 6 7 6 4 17 29 40 20 16 30 25 58 7 8 16 35 48 50 51 60
Wind_Direction_850mb
306 314 322 326 334 338 343 344 348 344 338 338 345 348 235 192 196 214 230 252 219 137 133 143 154 147 151 124 103 99 62 256 260 146 253 156 155 212 225 217 212 218 185 194 232
302 298 302 306 309 315 322 332 335 339 338 329 325 330 273 226 226 217 231 232 114 130 153 170 163 145 106 106 95 91 123 228 217 184 237 204 206 211 231 214 223 206 204 234 271
304 301 295 294 298 300 305 314 324 329 332 326 322 317 234 214 226 217 227 222 129 148 178 174 150 133 108 135 125 127 202 226 241 224 209 224 251 225 209 248 226 213 212 239 264
314 307 301 293 292 297 300 304 311 318 322 318 312 306 234 201 199 183 232 262 129 152 165 158 155 137 115 110 125 150 238 225 258 241 245 230 264 262 225 237 259 224 220 241 266
306 316 310 301 294 293 296 298 301 305 311 314 308 298 229 233 239 216 252 213 187 174 185 171 151 122 107 117 98 162 250 239 254 253 257 258 253 252 258 248 244 229 235 248 264
300 303 309 309 301 293 290 292 294 293 298 303 299 292 231 231 225 247 206 210 199 187 182 168 134 110 106 96 139 305 271 284 260 256 255 254 266 298 270 227 222 224 236 249 258
290 298 304 305 307 298 290 289 291 288 289 295 293 295 265 245 233 234 248 219 174 175 166 158 143 142 127 56 353 33 320 305 244 228 250 318 274 234 247 246 217 223 237 247 254
281 289 297 305 304 308 299 287 288 289 287 288 288 296 265 246 235 242 221 199 147 150 140 158 156 123 90 116 34 352 44 320 195 176 230 106 273 253 226 205 214 223 238 248 251
275 275 287 296 306 303 310 296 285 284 283 282 280 276 259 259 228 224 206 183 155 130 139 138 137 100 107 91 5 12 244 228 307 201 142 185 273 244 215 208 226 230 238 249 248
265 267 273 286 295 304 300 305 287 280 271 271 251 289 248 238 195 194 189 170 142 146 122 115 81 78 54 114 225 209 229 249 252 220 221 248 259 264 256 234 239 241 237 243 244
242 268 270 274 282 290 302 308 293 273 242 229 172 161 156 181 176 180 176 170 147 142 141 94 85 216 217 204 176 154 220 254 271 171 260 244 277 276 261 242 235 237 235 237 242
250 255 255 268 265 275 284 284 265 282 304 246 237 222 203 186 168 184 177 173 161 171 115 53 234 211 203 183 219 228 220 270 280 299 254 321 288 286 260 241 239 231 235 233 227
254 252 238 252 260 260 267 262 264 283 261 262 222 216 195 202 211 193 187 178 163 164 189 175 215 134 141 156 172 227 194 228 245 317 239 313 292 334 291 297 295 233 238 224 219
272 249 248 234 249 253 259 263 241 258 355 238 204 204 185 172 234 189 185 178 198 200 164 234 232 162 166 200 153 247 185 150 55 28 273 8 279 305 300 305 274 177 177 188 201
266 272 260 231 226 233 235 220 187 167 260 113 157 156 159 177 135 170 178 167 179 186 128 235 167 160 171 204 174 228 124 93 82 72 337 355 67 271 346 322 248 190 187 195 201
258 269 277 232 230 223 233 149 144 76 238 162 132 163 130 159 143 122 152 147 127 139 176 250 184 170 191 71 57 144 77 44 51 59 348 243 115 285 241 217 304 193 196 200 207
257 252 261 211 225 224 207 141 117 218 24 200 183 166 156 154 166 165 162 170 161 130 208 117 207 181 148 96 24 91 89 331 345 10 227 147 89 247 259 239 222 209 205 203 203
258 250 241 234 225 225 172 97 200 202 202 137 112 120 177 154 196 175 144 189 233 158 133 165 251 177 179 176 175 181 171 167 209 215 284 89 235 249 200 271 245 244 210 195 194
298 264 246 238 244 217 162 194 203 193 158 143 98 133 238 206 143 145 195 208 197 182 182 157 216 100 82 123 137 186 199 165 106 41 39 231 281 293 228 228 140 171 180 188 192
311 248 244 235 244 205 220 216 245 236 127 173 180 164 174 186 160 187 183 207 204 181 160 204 103 327 142 125 66 157 164 85 352 138 257 279 275 244 264 217 215 196 203 196 196
306 247 225 228 219 188 223 209 200 245 166 156 195 158 198 176 171 192 201 267 203 179 171 154 120 299 150 203 172 141 208 132 135 163 180 277 265 210 221 198 208 213 213 205 202
283 242 232 190 178 190 198 190 207 200 178 135 65 198 182 178 170 199 210 243 182 145 166 171 117 163 215 126 139 170 195 173 147 215 243 211 274 176 215 219 216 231 219 214 212
320 282 278 191 220 205 244 232 230 201 174 175 176 228 164 185 182 198 189 49 194 166 158 175 216 82 18 14 356 202 194 175 115 91 207 151 258 4 286 290 262 237 211 210 209
309 296 266 223 294 327 175 226 209 204 260 214 181 150 76 259 260 190 216 186 195 197 163 130 151 167 190 167 131 186 189 181 160 150 184 230 303 270 270 254 257 242 217 209 213
231 274 329 324 7 259 321 331 216 212 234 219 264 207 190 211 201 211 157 124 30 151 92 151 187 160 202 139 151 181 171 186 204 214 197 232 225 252 242 235 239 238 221 212 215
232 285 340 320 333 2 185 217 331 299 181 215 223 214 208 198 197 195 160 200 180 178 168 172 176 109 315 196 216 235 205 198 222 236 253 269 277 260 254 248 261 256 234 226 227
302 327 326 327 347 35 345 7 14 349 234 265 304 243 213 225 214 279 199 167 152 149 162 151 135 121 230 48 46 285 208 209 204 205 212 222 243 273 232 233 251 267 261 249 254